Lapse_Rate
1.2 2.8 1.0 3.9 6.3 6.5 6.5 6.5 6.5 6.5 6.5 6.6 6.6 6.7 6.6 6.5 6.5 6.5 6.4 6.4 5.1 3.8 3.2 3.0 2.9 3.0 3.1 3.2 3.3 3.5 3.6 3.7 3.7 3.9 4.3 4.6 5.0 5.2 5.1 5.1 4.9 5.1 5.3 5.7 5.7 5.8 5.9 5.9 5.6
0.3 2.7 2.9 3.2 6.5 6.5 6.5 6.5 6.5 6.5 5.8 6.7 7.0 7.0 6.7 6.5 7.7 6.4 7.0 6.3 5.2 3.3 2.9 2.7 2.7 2.9 3.0 2.9 3.1 3.3 3.7 3.7 3.7 3.7 4.0 4.2 4.6 4.9 5.0 4.9 4.8 4.9 5.3 5.7 5.9 6.0 5.9 5.8 5.4
1.7 3.6 3.8 6.5 6.5 6.5 6.5 6.5 6.5 6.1 5.0 5.5 5.9 6.0 7.1 6.9 5.9 6.5 6.6 5.5 4.4 3.4 2.9 1.8 2.5 2.6 2.7 2.8 2.8 2.8 2.8 2.8 2.9 3.1 3.5 3.8 4.0 4.3 4.6 4.8 4.8 4.9 5.0 5.5 5.8 5.7 5.5 5.5 5.3
3.7 3.0 3.2 6.5 6.5 6.5 6.5 6.5 6.3 6.5 5.3 4.7 4.8 6.5 6.7 7.2 6.4 6.2 7.0 5.5 3.7 2.3 1.5 1.4 1.5 1.9 2.6 2.9 2.8 2.7 2.6 2.5 2.5 2.5 2.6 3.1 3.4 3.6 4.1 4.3 4.6 4.9 5.1 5.3 5.5 5.4 5.2 5.0 5.0
2.6 2.9 6.5 6.5 6.5 6.5 6.5 5.6 4.8 6.5 6.2 6.0 4.4 6.6 7.0 7.2 6.5 7.3 8.0 5.7 3.0 1.3 0.5 0.3 0.8 1.8 2.4 2.7 2.7 2.8 2.9 3.0 3.1 3.4 3.7 3.7 3.6 3.6 3.8 4.1 4.5 4.7 5.0 5.2 5.3 5.2 5.0 4.8 4.8
3.9 2.5 6.5 6.5 6.5 6.5 6.5 5.2 5.6 6.1 5.4 5.6 6.4 6.7 6.7 7.8 7.4 7.5 6.7 5.1 3.2 1.2 0.8 1.2 2.0 2.3 2.4 2.5 2.6 2.8 3.2 3.6 3.7 3.8 4.2 4.3 4.6 4.6 4.7 5.0 4.4 4.3 4.4 4.7 4.9 5.0 4.9 4.8 4.7
5.6 6.5 6.5 6.5 6.5 6.5 6.5 5.7 6.4 6.4 5.6 6.2 5.5 6.5 6.7 7.0 6.5 6.3 5.5 4.5 3.1 2.4 1.4 1.6 2.1 2.4 2.4 2.5 2.5 2.9 3.1 3.3 3.5 3.3 3.5 4.2 5.0 5.3 6.0 5.2 5.0 5.1 4.9 4.8 4.7 4.9 4.8 4.8 4.7
4.3 6.7 6.5 6.5 6.5 6.5 6.2 6.0 6.4 5.5 6.2 6.4 4.9 6.5 6.4 6.7 6.2 6.0 5.4 3.8 3.1 2.4 1.5 1.6 2.6 3.1 2.1 2.7 3.3 3.4 3.6 3.6 3.4 2.8 2.8 3.1 3.9 4.9 5.5 5.9 5.8 6.5 6.0 5.6 5.0 4.9 4.7 4.5 4.7
5.5 6.5 6.5 6.5 6.5 6.5 5.1 6.3 5.4 5.3 4.7 6.1 4.5 5.6 4.0 6.2 6.7 6.5 5.1 3.9 2.9 2.5 1.0 0.6 1.2 1.9 1.8 3.3 3.5 2.7 3.3 3.3 2.6 2.1 2.1 2.4 2.6 3.2 4.3 4.7 5.1 5.6 6.1 6.6 6.4 5.9 5.9 5.3 4.7
5.5 6.5 6.5 6.5 6.5 6.5 5.9 5.0 6.0 6.1 5.4 6.6 5.2 4.7 4.9 5.8 6.8 6.4 4.9 3.8 3.3 1.9 0.8 0.0 0.3 0.2 1.6 3.3 2.4 2.0 2.8 2.3 1.8 1.1 1.3 1.5 1.9 2.2 2.8 3.4 4.0 4.3 5.8 6.2 6.0 6.3 6.2 5.7 5.1
5.2 6.5 6.5 6.0 5.2 5.2 6.1 5.1 4.5 5.8 6.5 5.4 5.3 5.0 5.2 6.0 6.9 6.3 5.5 4.4 3.2 2.2 0.9 0.3 0.1 0.6 0.6 0.3 1.1 1.1 1.1 1.6 1.2 0.5 0.8 1.2 1.0 1.1 1.4 1.8 2.2 3.4 4.8 3.5 3.3 3.6 4.2 4.0 4.9
6.5 5.7 5.6 4.9 5.2 6.2 6.5 5.3 5.5 5.8 5.3 3.8 2.0 3.8 5.8 6.4 6.8 6.3 5.8 4.6 3.0 2.1 1.6 0.5 0.1 0.0 0.2 0.3 0.1 0.7 0.2 1.1 0.2 0.1 0.6 -0.0 -0.5 -0.2 0.3 1.0 1.8 3.0 3.0 2.0 2.6 2.7 3.1 3.5 3.9
6.5 6.5 5.5 4.9 4.8 5.1 5.7 5.9 5.9 4.3 4.3 4.5 4.7 5.3 6.3 6.7 6.5 5.7 5.2 4.4 3.1 2.4 1.8 0.8 0.4 0.1 -0.1 -0.2 0.3 0.0 0.3 0.3 1.1 1.0 0.2 0.4 -0.8 -0.6 0.4 1.2 1.8 1.9 2.5 3.2 2.9 2.4 2.0 2.2 2.6
5.6 5.6 5.6 5.1 4.6 4.9 6.3 6.0 5.4 4.4 4.3 6.0 6.2 6.3 6.2 6.2 5.9 4.8 4.8 4.0 3.7 2.9 1.9 1.0 0.9 0.7 0.4 -0.3 0.0 -1.2 0.8 1.1 1.6 0.9 0.1 1.1 0.0 -0.3 0.1 0.9 2.1 2.4 3.5 4.0 3.6 2.6 1.5 1.3 1.7
5.8 6.5 6.5 6.2 5.2 6.3 4.5 6.5 6.5 4.3 5.4 6.0 6.2 6.3 5.5 5.4 4.9 4.1 4.1 4.0 3.7 3.1 2.5 2.2 1.5 1.0 -0.4 0.3 0.1 -0.6 1.2 1.3 1.5 0.9 1.0 1.8 1.3 0.6 0.8 0.9 1.5 2.5 3.6 3.2 3.0 2.8 2.6 1.9 2.2
6.5 6.5 6.5 6.5 6.4 6.2 5.6 6.5 6.5 3.9 3.8 4.9 5.9 6.0 5.7 4.9 4.3 3.9 3.9 3.5 3.3 3.0 2.7 2.7 3.3 1.0 -0.0 0.6 0.3 0.9 2.2 1.8 2.7 1.2 1.7 1.9 2.0 1.7 1.1 0.4 0.7 2.2 2.5 2.7 2.5 2.4 1.6 1.1 1.2
6.5 6.5 6.5 6.5 6.4 6.5 6.5 6.5 6.5 3.9 5.4 4.7 5.6 4.9 4.2 3.1 3.4 3.5 3.3 3.4 3.0 3.0 2.9 3.5 2.3 1.5 1.3 1.5 1.7 2.4 2.3 2.2 2.6 2.3 2.5 2.2 2.5 2.5 1.6 0.7 1.2 1.6 1.6 1.5 1.9 1.7 1.3 1.5 1.4
6.5 6.5 6.5 6.5 6.5 6.5 6.5 6.5 6.5 4.8 5.4 4.0 3.3 3.0 3.1 3.7 3.9 3.4 3.3 3.2 2.7 2.4 3.2 3.7 3.0 2.8 2.6 1.4 1.3 1.9 2.7 3.4 3.5 2.9 3.0 3.1 3.1 3.3 1.9 1.7 1.2 1.5 0.8 0.6 0.9 1.0 1.5 2.3 3.3
6.5 6.5 6.5 6.5 6.5 6.5 6.5 6.5 6.5 5.2 5.3 4.5 3.9 3.5 3.6 4.0 3.4 3.6 3.3 2.6 2.7 2.9 3.8 4.4 4.3 4.7 2.6 2.6 2.0 2.2 3.0 3.7 3.5 4.6 3.6 3.6 4.0 3.9 2.9 1.8 1.3 0.9 0.5 0.6 1.5 2.3 2.2 2.3 4.1
6.5 6.5 6.5 6.5 6.5 6.5 6.5 6.5 6.5 6.5 6.0 3.7 4.4 4.6 3.9 3.0 4.4 3.8 3.6 3.2 3.2 2.4 3.1 5.4 5.5 4.2 3.2 2.4 2.3 2.8 3.2 4.5 4.5 4.8 4.5 5.2 4.6 4.8 4.5 2.4 1.8 1.3 1.0 1.3 1.5 3.5 3.1 3.1 6.1
6.5 6.5 6.5 6.5 6.5 6.5 6.5 6.5 6.5 6.5 5.4 4.5 4.6 4.0 5.1 4.4 4.5 3.6 4.2 3.0 2.7 2.6 3.4 5.2 4.9 3.7 3.9 3.2 3.3 3.6 3.6 3.8 4.1 3.4 3.5 4.5 5.9 6.1 5.2 3.4 2.9 2.2 2.4 2.3 3.0 4.2 5.7 5.9 5.6
6.5 6.5 6.5 6.5 6.5 6.5 6.5 6.5 6.5 6.5 6.5 6.5 5.9 5.3 4.7 5.4 4.7 3.8 4.2 3.8 3.5 2.3 3.4 4.0 4.7 4.5 4.8 3.5 3.2 2.9 2.6 3.5 3.9 4.3 4.7 4.6 6.3 6.3 5.5 4.9 4.1 3.2 3.2 2.6 3.2 3.9 5.8 7.2 7.0
6.5 6.5 6.5 6.5 6.5 6.5 6.5 6.5 6.5 6.5 6.5 6.5 6.5 5.6 5.2 5.1 4.5 4.1 4.7 4.7 3.9 3.6 3.2 3.5 4.1 4.4 4.7 4.0 3.4 2.3 2.9 3.3 4.3 4.5 4.3 4.6 5.0 5.9 5.4 5.0 3.8 2.8 2.5 2.7 3.8 4.2 5.9 7.2 7.2
6.5 6.5 6.5 6.5 6.5 6.5 6.5 6.5 6.5 6.5 6.5 6.5 6.4 4.2 4.3 4.3 5.2 5.0 5.3 4.4 3.9 3.6 3.2 3.6 4.2 4.4 4.5 4.0 3.7 3.0 3.6 3.9 3.3 3.2 2.9 3.7 4.4 5.0 5.3 5.0 4.4 4.4 4.2 4.5 5.2 5.9 7.1 7.4 7.3
6.5 6.5 6.5 6.5 6.5 6.5 6.5 6.5 6.5 6.5 6.5 6.5 6.5 6.2 6.2 6.0 5.8 5.4 4.2 4.6 4.6 3.7 3.1 4.4 4.5 4.9 4.8 4.6 4.5 3.9 3.4 3.4 2.4 2.3 2.5 2.6 2.8 3.7 4.2 4.8 4.7 4.6 5.4 6.0 6.1 6.4 7.2 7.4 7.5
6.5 6.5 6.5 6.5 6.5 6.5 6.5 6.5 6.5 6.5 6.1 5.6 6.1 6.7 6.9 6.5 6.2 5.1 4.0 4.4 4.8 4.5 4.0 4.9 5.4 5.2 5.3 5.1 4.9 4.2 3.3 3.0 2.3 2.3 2.1 2.5 3.2 3.8 4.4 4.6 4.9 4.9 5.9 6.5 7.2 7.3 7.6 7.6 7.5
6.5 6.5 6.5 6.5 6.5 6.5 6.5 6.5 6.5 6.5 6.5 6.3 6.5 6.8 6.4 6.0 5.7 5.4 4.9 4.7 4.9 4.6 4.6 5.4 5.9 6.0 5.7 5.0 4.8 4.4 3.8 3.7 3.3 3.1 2.5 2.9 3.2 4.9 4.3 4.5 4.3 6.1 6.9 7.4 7.7 7.4 7.6 7.9 7.8
6.5 6.5 6.5 6.5 6.5 6.5 6.5 6.5 6.5 6.5 6.5 6.5 6.5 6.5 6.4 6.1 5.7 5.7 4.5 5.1 5.5 5.0 4.6 5.0 5.3 5.6 5.1 4.6 4.7 4.3 3.4 3.6 3.5 3.3 2.9 3.1 3.4 4.1 5.1 6.1 7.5 8.6 8.4 8.1 8.0 7.7 8.1 7.0 7.4
6.5 6.5 6.5 6.5 6.5 6.5 6.5 6.5 6.5 6.5 6.5 6.5 6.5 6.6 6.5 6.1 5.8 5.2 5.2 5.2 4.9 4.7 4.6 4.6 5.1 5.1 4.7 4.8 4.3 3.9 3.6 4.0 3.4 2.8 3.1 3.5 4.2 6.3 7.8 8.6 8.8 8.4 8.3 8.5 8.5 7.8 8.1 7.2 5.5
6.5 6.5 6.5 6.5 6.5 6.5 6.5 6.5 6.5 6.5 6.5 6.4 6.0 6.8 5.4 5.6 5.0 5.0 5.0 4.6 4.6 4.7 4.7 4.8 5.0 5.5 5.3 5.6 4.9 4.7 4.5 4.2 3.2 3.5 4.1 4.7 8.0 9.1 9.0 8.8 8.3 8.7 8.5 8.6 7.5 7.3 7.2 5.5 4.5
Wind_Speed
10 14 2 2 3 3 5 10 3 7 7 11 17 19 17 13 3 7 7 13 12 10 12 13 15 16 15 15 15 14 14 13 13 12 10 9 8 7 7 7 6 6 6 7 6 4 6 6 6
5 7 2 2 3 2 7 6 6 9 7 19 19 15 11 9 9 12 8 14 12 13 12 11 16 16 16 16 15 14 13 12 12 12 10 9 8 7 7 6 5 5 6 6 7 8 7 7 6
3 4 2 4 3 7 5 2 6 5 9 8 6 10 6 5 5 3 13 15 15 10 13 14 16 16 16 16 16 15 14 13 13 12 10 9 9 7 6 6 6 6 6 6 6 7 8 7 6
3 3 4 0 10 15 8 6 8 4 6 11 11 11 6 9 4 8 14 15 12 10 12 13 16 17 16 16 15 15 14 14 14 13 11 9 8 8 8 7 6 6 6 6 7 7 7 7 6
2 1 1 4 12 15 9 8 9 7 5 9 7 5 6 5 7 12 15 14 12 8 10 13 17 17 16 16 15 14 13 13 13 14 13 11 9 8 7 7 8 8 8 7 7 7 8 8 7
3 3 3 7 13 10 9 7 7 8 8 9 8 7 4 8 6 11 13 12 10 9 10 14 16 16 16 15 14 13 12 12 13 13 15 14 11 9 9 8 7 7 8 8 8 9 9 10 9
6 2 6 8 12 11 4 1 3 4 8 5 14 6 8 8 8 10 11 9 8 10 9 11 13 13 14 14 11 11 11 12 14 15 20 21 17 14 17 12 6 7 8 9 9 10 10 12 12
1 4 7 7 10 9 6 5 3 8 4 8 8 7 8 10 11 10 10 8 8 7 7 9 11 8 8 10 8 7 9 11 15 19 20 21 21 22 18 17 11 14 13 12 13 13 14 14 15
2 2 5 10 6 5 8 8 8 6 9 8 8 6 15 21 15 11 10 7 6 7 7 8 8 8 6 8 7 4 13 13 17 18 19 20 18 17 18 19 20 20 18 17 15 17 17 16 15
4 5 9 8 6 4 8 9 4 3 6 6 13 17 19 20 14 14 10 8 7 7 6 7 6 7 8 10 11 13 13 14 14 18 19 19 19 17 18 21 21 23 22 20 21 22 20 13 9
5 6 9 7 6 4 4 11 6 5 4 8 15 18 18 17 12 13 11 10 7 6 6 7 6 6 7 6 10 10 11 11 11 16 19 18 16 16 15 15 16 18 18 15 17 16 14 13 12
7 10 11 9 6 3 1 4 9 2 6 14 21 21 18 17 16 15 13 11 9 8 7 7 6 4 6 10 8 8 7 8 9 12 17 14 9 10 10 10 12 12 14 12 13 11 14 14 14
6 9 10 9 9 7 6 5 7 10 4 20 22 21 19 15 14 9 13 13 11 9 7 7 6 4 5 6 5 7 6 7 9 10 16 17 9 5 10 11 12 11 15 12 10 9 7 7 12
7 10 12 7 11 7 9 7 3 9 10 17 19 17 15 13 11 11 13 13 11 10 8 7 5 3 6 4 4 5 7 7 11 12 14 16 13 9 8 7 8 11 14 15 11 6 8 8 9
9 8 10 13 9 10 10 9 8 9 12 16 15 14 12 11 12 13 13 13 13 9 9 8 6 4 5 4 4 7 6 8 8 12 15 16 14 12 9 5 4 10 15 15 14 12 11 8 9
10 6 6 15 15 18 9 15 12 10 9 14 16 15 14 10 12 12 10 12 12 10 9 7 6 5 5 3 3 5 5 6 7 12 14 15 15 15 10 4 4 12 12 12 7 8 8 8 8
7 6 11 16 18 11 13 7 12 10 6 11 16 12 11 10 13 11 9 12 10 10 9 6 6 4 3 3 3 2 5 7 10 13 12 14 15 15 11 6 8 13 10 7 8 7 8 8 9
6 7 11 9 8 5 2 4 6 6 6 8 11 10 10 14 13 13 14 13 10 9 9 7 4 2 2 0 2 3 4 5 10 8 11 13 13 14 12 9 9 11 6 7 8 8 8 9 10
17 18 17 8 9 4 5 7 9 8 4 9 14 14 13 16 13 16 14 14 13 9 8 5 5 2 3 3 4 3 2 2 3 6 14 12 12 12 11 7 7 8 5 6 7 7 11 9 10
18 15 14 6 8 8 10 10 8 8 6 10 14 14 15 11 19 17 16 15 13 10 9 6 5 6 5 3 1 2 2 2 3 6 8 11 11 11 9 7 5 5 4 6 7 10 7 7 10
19 11 10 7 6 9 6 10 7 7 8 8 15 17 17 20 21 18 16 13 12 11 10 8 8 6 5 6 2 3 3 3 3 4 4 7 12 10 11 12 8 5 4 4 7 8 10 7 8
21 8 10 8 6 9 5 14 8 5 10 11 18 18 17 20 21 17 18 13 12 9 9 9 9 7 6 7 5 6 4 3 2 2 3 5 13 13 14 12 11 8 5 6 7 7 7 7 7
16 9 12 10 6 5 10 5 2 7 14 15 12 16 21 21 24 21 18 14 13 10 8 8 9 8 6 6 6 5 5 3 2 3 7 6 7 13 13 12 10 6 4 5 7 7 7 4 6
7 3 5 4 1 6 5 5 20 9 14 17 16 7 18 24 20 20 17 17 12 10 8 8 9 7 7 7 7 7 6 5 5 6 5 5 4 4 12 12 10 9 6 8 6 7 8 7 6
3 3 2 3 3 11 4 7 15 9 10 8 9 14 21 23 21 20 19 17 14 11 8 7 9 8 7 7 7 6 7 7 7 6 4 5 4 3 6 8 6 4 8 11 11 8 7 7 7
10 7 5 6 6 6 5 6 10 2 6 10 14 17 18 17 17 17 17 14 13 11 9 8 8 8 7 7 6 6 7 4 4 5 4 4 4 4 7 7 8 8 12 11 11 7 7 8 7
10 8 7 8 13 1 4 10 15 11 6 9 18 17 16 16 16 17 15 14 13 11 8 8 8 9 8 7 6 6 6 7 5 6 6 6 6 6 7 8 5 10 12 12 11 8 9 10 9
4 6 7 3 3 6 8 7 5 7 8 10 15 19 17 15 16 14 13 12 11 11 10 10 9 9 8 7 6 6 6 6 6 7 7 6 5 6 6 7 7 8 10 10 9 8 8 9 8
4 2 5 4 4 4 3 4 6 8 9 7 12 11 13 14 13 12 12 11 12 11 10 8 8 8 7 6 7 7 6 6 6 7 6 5 5 6 8 9 9 9 10 8 8 8 9 11 11
2 4 3 2 1 3 3 4 11 12 15 8 10 8 12 12 12 14 13 13 12 10 9 9 7 7 6 6 6 6 5 5 7 6 5 4 6 8 8 9 8 9 9 9 9 9 10 11 12
Wind_Direction
328 309 155 8 37 85 269 270 237 279 62 84 90 92 88 53 123 127 147 105 123 118 93 83 81 83 81 80 77 74 70 69 70 68 60 50 39 34 32 31 31 29 21 5 360 344 333 332 352
328 318 65 270 115 292 278 326 100 81 109 108 96 100 71 72 67 121 116 117 111 96 90 89 86 82 77 72 69 70 71 66 63 60 56 50 40 29 19 14 17 10 7 357 349 342 337 337 337
277 187 66 158 211 226 244 32 105 88 75 48 92 50 62 67 78 83 124 107 100 99 97 79 87 84 78 74 68 63 60 60 58 52 44 36 28 25 17 0 350 347 351 344 335 340 341 336 320
335 27 327 105 262 268 237 196 139 98 67 81 113 76 74 344 109 128 122 112 105 97 88 86 85 82 78 74 69 63 55 50 50 45 39 26 12 5 357 349 336 327 323 329 329 331 325 326 324
147 310 283 276 268 273 289 197 140 126 96 106 100 109 72 47 101 136 126 115 113 116 110 92 82 77 72 68 63 60 55 49 44 40 25 14 4 359 354 343 334 328 318 310 303 301 305 311 310
340 120 343 284 286 298 317 160 149 152 144 132 93 104 111 152 113 97 96 109 122 130 125 100 90 86 80 71 64 60 56 48 41 29 16 5 354 347 339 336 345 342 336 318 309 302 297 294 293
185 83 251 279 293 314 255 59 37 121 146 130 139 89 142 143 124 106 103 101 104 114 117 114 103 97 91 82 71 59 52 48 39 36 17 8 21 7 353 343 358 348 328 314 305 297 284 280 280
121 115 311 283 292 305 337 358 29 57 16 92 138 143 162 164 139 125 119 117 111 102 97 89 82 88 111 84 81 68 48 47 50 38 20 19 13 5 6 2 338 332 329 315 303 289 281 276 277
276 38 270 265 282 289 353 19 349 14 61 45 0 133 141 141 150 130 121 110 102 95 89 84 71 45 70 78 60 79 57 47 57 46 27 15 8 9 15 5 11 11 358 340 327 308 298 285 279
140 168 243 245 294 357 358 0 322 66 102 73 75 78 119 139 154 140 141 146 130 118 102 94 76 47 73 63 61 68 59 50 52 54 36 19 13 21 15 8 2 1 1 5 358 1 358 330 304
258 219 252 281 289 50 17 334 321 202 211 176 154 143 144 154 160 150 157 156 151 132 106 106 95 67 60 74 64 54 59 54 50 57 46 28 17 20 11 2 357 352 356 16 13 4 360 356 350
329 284 257 284 307 293 240 296 316 239 240 153 147 148 155 167 165 166 162 143 135 119 112 102 93 80 54 77 70 60 64 44 45 60 56 40 19 15 5 1 344 357 13 11 1 351 340 340 330
307 307 318 328 337 313 293 259 249 296 75 129 139 154 163 170 170 166 143 140 131 118 112 99 87 68 75 68 64 65 51 40 61 60 62 48 36 22 7 353 349 21 7 359 345 336 340 346 345
282 307 310 318 301 295 289 262 220 286 129 136 149 159 162 173 171 132 139 136 128 122 116 115 97 75 81 87 70 103 60 56 65 71 65 48 48 32 10 355 354 13 2 346 335 341 4 354 346
308 318 303 288 273 268 252 281 242 233 148 156 158 163 168 176 146 144 137 130 129 124 121 126 127 97 74 85 76 96 66 74 75 86 65 48 49 37 17 357 6 6 0 358 10 6 0 356 343
297 290 273 268 250 254 186 240 245 227 177 168 170 175 174 165 142 135 136 127 127 127 123 100 121 105 89 82 86 96 84 79 73 86 65 56 43 37 21 14 12 6 9 18 7 355 359 351 343
243 253 257 271 257 240 198 209 217 231 185 186 177 177 171 144 143 146 128 127 118 115 116 107 88 80 85 134 132 155 97 89 83 76 63 63 45 34 23 25 21 28 23 14 360 3 2 348 340
236 232 253 251 284 309 228 213 210 220 211 182 173 168 163 159 157 134 125 113 104 97 99 102 102 130 231 302 65 83 73 71 85 83 72 60 49 35 40 27 30 30 27 14 5 1 357 349 341
244 255 264 274 283 356 250 258 249 231 204 175 176 178 181 176 147 129 124 121 111 105 105 114 109 317 42 70 69 54 66 76 66 74 85 69 58 43 42 34 30 36 32 17 6 357 350 354 347
256 262 268 264 293 292 288 272 229 228 222 196 188 191 186 142 150 138 133 129 130 130 128 121 117 62 40 41 43 133 170 88 110 89 65 62 67 51 55 52 37 26 24 22 13 1 354 347 353
262 266 274 245 290 292 299 274 267 265 236 223 209 193 187 163 155 146 142 135 133 126 129 125 106 88 49 8 54 21 42 47 40 46 37 38 48 51 58 55 45 29 27 17 12 2 4 343 343
254 233 282 269 249 261 227 278 239 270 273 258 240 204 185 169 155 146 143 135 134 131 109 108 103 88 65 38 43 59 68 69 41 74 40 47 39 48 59 45 43 39 16 23 9 355 351 345 333
279 228 250 266 273 316 265 266 227 233 267 273 240 223 195 158 151 147 141 133 126 119 114 114 110 101 79 65 61 59 52 36 34 38 54 30 32 50 42 38 45 38 27 16 354 345 340 330 327
339 5 339 308 157 265 237 196 276 248 249 255 267 192 141 140 139 133 130 125 123 115 114 112 113 106 89 80 68 72 59 37 47 43 40 19 25 29 26 34 33 22 22 360 354 341 333 329 324
251 41 3 283 210 251 165 226 237 277 300 279 155 124 130 134 135 133 126 126 124 123 122 119 117 107 99 87 74 68 59 59 68 58 43 26 21 20 22 27 22 14 12 356 347 341 334 326 324
219 158 186 220 235 264 332 250 252 199 60 44 58 121 119 121 127 126 126 124 125 120 116 109 119 113 98 88 75 65 61 56 61 57 54 41 31 10 26 14 23 13 8 358 350 345 337 335 332
240 216 213 254 268 257 249 290 298 306 51 45 100 107 108 118 119 119 118 124 127 125 118 113 112 106 93 86 73 68 60 56 44 44 51 42 27 3 3 11 12 8 358 355 352 345 340 335 340
182 196 231 56 219 240 246 251 230 58 40 33 100 120 115 116 120 121 121 130 124 118 108 91 95 97 94 84 75 74 69 54 49 56 47 33 6 357 6 2 1 4 358 358 352 345 350 360 350
326 57 56 115 206 214 259 295 108 108 104 86 98 105 114 129 130 122 125 119 117 111 105 101 96 96 92 91 85 77 63 55 61 60 41 15 2 7 3 359 358 12 351 357 347 4 3 351 335
103 329 66 249 283 159 199 235 72 65 48 42 71 113 129 126 127 127 125 124 124 120 109 103 101 94 100 95 97 92 78 63 67 54 26 358 7 8 0 359 16 360 353 358 20 8 359 343 334